Location: Aucun
(42.9667°N, 0.1667°W)
Time: 09:21:04
(UTC+00:00)

Meteor 2-10 Rocket - Pass Details

Date: 17 February 2020
Orbit: 734 x 885 km, 81.2° (Epoch: 27 March)

Event Time Altitude Azimuth Distance (km) Brightness Sun altitude
Exits shadow 04:27:16 79° 25° (NNE) 814 3.5 -27.8°
Drops below altitude 10° 04:32:11 10° 11° (N) 2,327 6.2 -27.0°
Sets 04:34:30 0° 11° (N) 3,238 7.0 -26.5°
